SCP
2 2 2 2 1 1 1 1 1 1 1 1 1 0 0 0 0 0 0 0 0 0 0 0 0 0 0 1 1 1 1 1 1 1 1 1 1 1 1 1 1 1 1
2 2 2 2 1 1 1 1 1 1 1 1 1 0 0 0 0 0 0 0 0 0 0 0 0 0 1 1 1 1 1 1 1 1 1 1 1 1 1 1 1 1 1
1 1 2 2 1 1 1 1 1 1 1 1 1 1 0 0 0 0 0 0 0 0 0 0 0 0 1 1 1 1 1 1 1 1 1 1 1 1 1 1 1 1 1
1 1 2 2 1 1 1 2 1 1 1 1 1 1 1 0 0 0 0 0 0 0 0 0 0 0 1 1 1 1 0 1 1 1 1 1 1 1 1 1 1 1 1
1 1 1 2 1 1 1 1 1 1 1 1 1 1 1 0 0 0 0 0 0 0 0 0 0 0 0 1 1 1 1 1 1 1 1 1 1 1 1 1 1 1 1
1 1 1 1 1 1 1 1 1 1 1 0 1 1 1 1 0 0 0 0 0 0 0 0 0 0 0 0 1 1 1 1 1 1 1 1 1 1 1 1 1 1 1
1 1 1 1 1 1 1 1 1 1 1 0 0 1 1 1 0 1 1 1 0 0 0 0 0 0 0 0 0 1 1 1 1 1 1 1 1 1 1 1 1 1 1
1 1 1 1 1 1 1 1 1 1 1 1 1 1 1 0 0 0 1 0 0 0 0 0 0 0 0 0 0 0 0 1 1 1 1 1 1 1 1 1 1 1 1
0 0 1 1 1 1 1 1 1 1 1 1 1 0 0 0 0 0 0 0 0 0 0 0 0 0 0 0 0 0 0 0 1 1 1 1 1 1 1 1 1 1 1
0 0 0 1 1 1 0 0 0 0 0 1 1 0 0 0 0 0 0 0 0 0 0 0 0 0 0 0 0 0 0 0 0 1 1 1 1 1 1 1 1 1 1
1 0 0 0 1 0 0 0 0 0 0 1 1 0 0 0 0 0 0 0 0 0 0 0 0 0 0 0 0 0 0 0 0 0 0 0 0 0 1 1 1 1 1
1 0 0 0 0 0 0 0 0 0 0 0 0 0 0 0 0 0 0 0 0 0 0 0 0 0 0 0 0 0 0 0 0 0 0 0 0 0 0 1 1 1 1
1 0 0 0 0 0 0 0 0 0 0 0 0 0 0 0 0 0 0 0 0 0 0 0 0 0 0 0 0 0 0 0 0 0 0 0 0 0 0 0 1 1 1
1 0 0 0 0 0 0 0 0 0 0 0 0 0 0 0 0 0 0 0 0 0 0 0 0 0 0 0 0 0 0 0 0 0 0 0 0 0 0 0 0 1 1
1 0 0 0 0 0 0 0 0 0 0 0 0 0 0 0 0 0 0 0 0 0 0 0 0 0 0 0 0 0 0 0 0 0 0 0 0 0 0 0 0 0 0
0 0 0 0 0 0 0 0 0 0 0 0 0 0 0 0 0 0 0 0 0 0 0 0 0 0 0 0 0 0 0 0 0 0 0 0 0 0 0 0 0 0 0
0 0 0 0 0 0 0 0 0 0 0 0 0 0 0 0 0 0 0 0 0 0 0 0 0 0 0 0 0 0 0 0 0 0 0 0 0 0 0 0 0 0 0
0 0 0 0 0 0 0 0 0 0 0 0 0 0 0 0 0 0 0 0 0 0 0 0 0 0 0 0 0 0 0 0 0 0 0 0 0 0 0 0 0 0 0
0 0 0 0 0 0 0 0 0 0 0 0 0 0 0 0 0 0 0 0 0 0 0 0 0 0 0 0 0 0 0 0 0 0 0 0 0 0 0 0 0 0 0
0 0 0 0 0 0 0 0 0 0 0 0 0 0 0 0 0 0 0 0 0 0 0 0 0 0 0 0 0 0 0 0 0 0 0 0 0 0 0 0 0 0 0
0 0 0 0 0 0 0 0 0 0 0 0 0 0 0 0 0 0 0 0 0 0 0 0 0 0 0 0 0 0 0 0 0 0 0 0 0 0 0 0 0 0 0
0 0 0 0 0 0 0 0 0 0 0 0 0 0 0 0 0 0 0 0 0 0 0 0 0 0 0 0 0 0 0 0 0 0 0 0 0 0 0 0 0 0 0
0 0 0 0 0 0 0 0 0 0 0 0 0 0 0 0 0 0 0 0 0 0 0 0 0 0 0 0 0 0 0 0 0 0 0 0 0 0 0 0 0 0 0
0 0 0 0 0 0 0 0 0 0 0 0 0 0 0 0 0 0 0 0 0 0 0 0 0 0 0 0 0 0 0 0 0 0 0 0 0 0 0 0 0 0 0
0 0 0 0 0 0 0 0 0 0 0 0 0 0 0 0 0 0 0 0 0 0 0 0 0 0 0 0 0 0 0 0 0 0 0 0 0 0 0 0 0 0 0
0 0 0 0 0 0 0 0 0 0 0 0 0 0 0 0 0 0 0 0 0 0 0 0 0 0 0 0 0 0 0 0 0 0 0 0 0 0 0 0 0 0 0
Wind_Speed
1 1 1 1 1 1 2 2 2 2 2 3 3 4 3 3 3 2 2 5 6 7 8 9 10 11 11 11 11 10 10 10 10 11 10 10 10 10 10 11 11 11 10
1 1 2 1 1 2 2 2 2 2 2 3 3 3 3 3 3 3 2 3 6 6 7 9 10 10 11 11 10 10 10 9 10 10 9 9 9 9 10 10 10 10 10
1 1 2 2 1 2 2 2 2 2 2 3 3 3 3 3 2 3 3 2 2 4 6 7 8 9 9 10 10 10 9 9 10 9 9 9 9 9 9 9 10 10 9
1 1 2 2 2 2 2 2 2 2 2 2 2 2 2 2 2 3 3 2 2 2 3 5 6 7 8 9 9 9 9 9 9 9 9 9 8 8 9 9 8 8 8
1 2 2 2 2 2 2 3 2 2 3 3 2 2 2 2 2 3 3 3 3 2 2 3 5 6 6 7 8 9 9 9 9 9 8 8 8 7 7 7 7 7 7
1 2 2 2 2 2 2 2 3 2 3 3 3 2 2 1 1 2 3 3 3 3 3 3 2 3 4 5 7 8 8 8 8 8 8 7 7 6 6 6 6 6 6
0 1 2 2 2 2 3 4 3 3 2 3 3 3 2 2 1 1 2 2 3 3 3 3 2 2 1 3 4 6 7 8 8 8 7 6 6 6 5 5 5 4 4
1 0 2 2 2 2 4 4 4 3 2 2 3 4 2 0 1 1 1 2 3 2 3 3 3 2 2 1 2 4 5 7 8 8 7 6 6 5 4 4 4 4 3
1 0 1 1 2 3 4 4 4 3 3 2 2 3 3 3 1 0 1 1 2 2 2 2 3 2 2 2 2 2 3 5 7 7 7 7 6 5 4 3 3 3 3
1 0 1 1 1 2 3 4 3 3 4 3 2 0 1 3 3 2 1 1 1 2 2 2 2 2 2 2 2 3 3 4 6 7 7 7 6 5 5 4 3 3 3
2 1 0 1 0 1 3 3 3 3 3 3 3 1 1 1 1 2 2 2 1 1 2 2 2 2 2 2 2 3 4 4 5 7 7 7 6 6 5 4 3 3 3
1 1 1 0 1 0 2 3 3 3 2 2 2 2 2 3 2 2 2 3 3 2 1 2 3 3 3 2 3 4 4 4 5 6 7 6 6 6 6 5 4 3 3
2 2 1 1 1 1 2 2 3 3 3 3 3 2 2 2 2 2 2 2 2 1 1 2 3 3 3 3 3 5 5 5 5 6 7 7 6 5 5 6 5 4 4
2 2 1 2 2 2 2 2 3 3 3 3 3 3 2 2 2 2 3 3 2 1 2 3 1 3 3 3 4 5 4 6 6 6 7 6 5 5 5 5 5 5 5
2 2 1 1 2 2 2 2 2 3 3 3 3 3 2 2 2 2 3 4 4 4 4 3 2 3 3 3 4 4 4 5 6 6 6 5 5 5 5 5 5 5 4
2 2 2 1 1 2 1 1 2 2 3 3 2 2 2 2 2 2 2 2 2 3 3 3 3 2 3 2 4 4 4 5 6 7 7 6 6 5 5 6 5 5 5
2 2 2 2 2 2 2 2 2 2 3 3 3 3 3 3 3 3 2 2 2 2 3 2 2 2 3 3 3 3 3 3 3 6 7 7 6 6 6 6 6 6 6
2 2 2 2 2 2 2 3 3 3 3 4 4 4 3 2 3 3 3 3 3 3 3 3 2 2 3 4 4 3 3 2 3 4 5 6 6 6 7 7 6 6 6
2 2 2 2 3 3 3 3 4 4 4 4 4 4 4 3 4 3 3 3 3 2 2 3 3 2 2 2 3 2 2 2 2 3 4 5 5 5 6 7 7 7 6
3 2 3 3 3 3 4 4 4 4 4 4 4 4 4 5 5 5 4 4 3 3 3 3 3 2 2 2 3 3 2 2 2 2 3 3 4 5 5 6 6 6 6
4 3 3 3 3 3 4 4 4 5 5 4 4 4 4 5 6 5 4 5 5 4 3 3 3 2 2 3 4 3 3 2 2 2 2 2 3 3 4 5 6 7 7
4 3 3 3 4 4 6 7 5 4 4 5 5 4 5 6 6 7 7 7 7 6 6 4 4 4 5 4 3 3 3 3 3 3 3 3 2 3 3 3 6 8 8
4 3 4 3 4 5 8 8 7 4 4 5 5 5 4 4 5 5 6 7 7 9 9 7 6 6 6 6 6 5 4 4 4 3 3 4 3 4 3 4 7 8 8
4 4 4 4 4 5 8 8 8 4 4 5 5 5 5 5 5 5 4 5 6 6 7 6 7 6 6 6 7 6 5 3 1 2 3 3 3 3 2 3 7 8 8
4 4 4 4 4 5 8 9 7 3 4 5 5 5 6 6 8 8 6 6 6 5 6 7 7 6 7 7 6 3 3 3 3 3 2 2 2 2 2 2 4 6 7
5 5 5 4 5 5 8 9 8 4 4 4 4 5 8 8 9 9 6 6 7 6 4 4 4 4 4 6 8 7 6 5 3 3 3 3 2 1 2 2 2 3 4
Wind_Direction
137 149 139 136 136 134 136 136 125 112 112 109 108 110 106 107 108 95 87 91 104 117 128 133 133 131 128 123 120 116 113 112 107 102 100 95 91 89 86 82 79 77 73
151 152 148 143 153 158 149 148 151 138 130 121 112 111 118 111 116 110 97 92 93 104 116 127 132 132 131 128 124 120 117 115 112 108 104 99 94 92 89 86 82 79 74
146 151 157 153 165 161 144 132 131 125 121 116 112 117 121 111 114 126 117 106 103 98 107 117 132 137 137 132 129 125 122 117 114 110 106 104 100 96 92 88 83 79 75
154 147 156 163 167 155 147 143 142 128 125 119 118 123 119 124 119 129 125 122 113 103 105 110 115 131 139 139 136 133 129 125 120 115 111 108 104 101 97 92 86 82 76
180 156 166 164 164 152 147 154 148 146 137 124 119 111 112 128 135 134 134 136 132 122 112 108 107 117 130 141 143 139 135 132 128 123 120 116 111 105 103 98 92 85 79
215 157 164 156 160 154 149 145 148 142 143 136 116 93 80 113 130 138 147 144 139 134 123 116 112 112 116 133 144 147 142 140 136 134 131 128 124 117 115 110 101 94 84
330 177 162 163 162 164 163 151 144 141 136 137 116 100 55 62 114 135 146 146 144 146 138 135 130 115 125 126 141 149 151 149 147 145 140 139 137 131 124 123 119 107 96
346 103 165 173 170 163 158 153 145 146 160 157 140 139 135 94 35 114 142 155 156 144 141 149 145 139 134 133 140 143 157 163 162 158 155 153 149 146 142 139 139 131 118
333 119 131 166 173 172 174 170 165 154 167 194 170 151 157 186 171 239 174 152 153 155 161 153 152 158 154 151 161 165 165 174 177 173 171 167 163 163 162 159 156 150 137
342 64 104 110 182 186 180 178 172 164 166 180 198 192 164 149 158 169 211 206 171 168 169 158 163 167 163 162 167 167 172 184 191 187 185 178 174 174 176 171 169 168 163
349 7 154 160 191 201 181 174 171 169 176 182 184 174 137 105 138 155 183 204 202 198 181 178 178 179 179 178 185 184 183 188 190 190 187 184 186 186 187 185 190 187 177
331 341 321 237 245 252 195 179 176 178 189 193 191 182 177 172 177 164 174 192 203 219 205 190 192 192 189 191 197 191 194 199 195 194 196 194 195 198 198 197 200 196 195
313 291 304 282 262 273 230 187 179 186 193 198 201 204 206 205 175 172 163 178 196 214 204 208 204 196 195 195 203 197 202 206 210 206 204 203 203 201 199 202 204 206 207
269 268 276 279 293 276 254 199 192 191 192 200 212 211 209 213 189 181 171 166 172 198 210 223 209 201 200 199 206 197 207 206 209 213 210 207 203 198 199 204 209 213 216
276 262 264 269 287 271 239 206 201 202 198 206 207 215 215 217 203 201 180 173 172 190 213 213 207 204 199 200 201 200 210 211 209 212 213 210 207 205 200 203 206 210 215
280 264 263 268 281 282 240 215 208 210 200 211 211 213 221 218 203 201 191 194 193 190 210 204 209 209 195 203 202 203 212 208 212 212 212 208 207 205 199 202 205 206 205
269 254 257 264 272 283 257 225 218 213 211 213 214 214 218 208 204 206 196 195 200 189 208 235 217 192 189 198 208 211 207 204 216 215 212 207 205 205 204 203 202 201 205
264 255 251 254 264 281 271 241 229 216 211 216 216 215 223 217 217 212 200 201 205 199 189 212 216 195 201 200 199 206 213 215 218 216 210 212 210 206 206 205 205 207 210
274 273 255 250 255 258 261 250 238 225 220 219 218 217 219 215 228 225 208 205 208 209 190 189 204 203 207 191 187 203 208 215 228 220 210 217 219 215 210 209 208 210 214
289 269 265 255 255 259 258 249 250 234 227 226 227 226 220 217 223 221 212 208 199 195 188 181 188 193 207 191 178 196 212 218 227 219 227 229 228 223 219 214 211 211 213
298 282 273 269 263 255 251 239 241 232 225 227 230 232 234 230 232 228 221 206 192 192 194 195 194 196 199 192 203 199 211 218 230 210 220 227 220 220 220 224 220 217 216
297 281 271 268 270 267 270 262 258 231 224 224 228 230 237 235 232 234 232 221 210 202 202 205 209 207 208 207 207 208 201 202 232 205 203 234 208 221 225 220 228 221 219
295 285 274 268 267 272 275 266 264 256 229 226 227 227 238 245 242 231 231 228 225 223 215 210 212 215 206 203 199 207 214 214 225 201 196 230 213 231 229 234 230 220 216
291 287 281 275 268 273 283 275 265 259 240 234 232 228 228 232 238 230 226 227 228 227 221 216 215 219 216 205 204 211 213 222 270 212 188 221 215 233 246 237 228 218 219
297 288 281 274 269 272 280 277 272 250 241 241 239 236 233 232 237 235 230 228 231 238 236 232 229 227 224 214 201 185 188 202 237 226 197 199 213 242 253 237 230 227 226
295 292 288 275 269 269 278 275 269 247 238 243 244 239 240 241 238 232 228 223 228 230 219 224 230 229 221 213 204 200 196 203 213 224 197 184 194 179 246 247 232 228 227